Location: Newark
(52.1031°N, 9.3600°E)
Time: 14:21:18
(UTC+00:00)

Envisat - Pass Details

Date: 30 October 2019
Orbit: 764 x 766 km, 98.1° (Epoch: 17 November)

Event Time Altitude Azimuth Distance (km) Brightness Sun altitude
Rises 05:00:10 0° 26° (NNE) 3,245 6.5 -11.7°
Reaches altitude 10° 05:03:19 10° 47° (NE) 2,312 6.1 -11.2°
Maximum altitude 05:06:35 17° 87° (E) 1,869 6.3 -10.7°
Drops below altitude 10° 05:09:50 10° 127° (SE) 2,301 6.6 -10.2°
Sets 05:12:57 0° 148° (SSE) 3,221 6.9 -9.7°
